Weather History for Toluca Jose Maria, Mexico

Change the Weather History Date:

Tuesday, December 3, 2013

  Actual Average Record
Temperature  
Mean Temperature 52 °F -  
Max Temperature 71 °F 66 °F 75 °F (2004)
Min Temperature 32 °F 33 °F 24 °F (1999)
Degree Days  
Heating Degree Days 14    
Growing Degree Days 2 (Base 50)    
Moisture  
Dew Point 38 °F    
Average Humidity 66    
Maximum Humidity 93    
Minimum Humidity 22    
Precipitation  
Precipitation 0.00 in - - ()
Sea Level Pressure  
Sea Level Pressure 30.15 in    
Wind  
Wind Speed 3 mph ()    
Max Wind Speed 17 mph    
Max Gust Speed -    
Visibility 6.9 miles    
Events      
Averages and records for this station are not official NWS values.
T = Trace of Precipitation, MM = Missing Value Source: Averaged Metar Reports

Daily Weather History Graph

Daily Weather History Graph

Search for Another Location

Airport:

Trip Planner

Search our weather history database for the weather conditions in past years. The results will help you decide how hot, cold, wet, or windy it might be!

Date:

Astronomy

Dec. 03, 2013 Rise Set
Actual Time 6:57 AM CST 5:59 PM CST
Civil Twilight 6:33 AM CST 6:22 PM CST
Nautical Twilight 6:06 AM CST 6:50 PM CST
Astronomical Twilight 5:39 AM CST 7:16 PM CST
Moon 7:31 AM CST (12/3) 7:01 PM CST (12/3)
Length of Visible Light 11h 49m
Length of Day
11h 02m
New Moon, 1% of the Moon is Illuminated
Dec 3
New Moon
Dec 9
First Quarter
Dec 17
Full
Dec 25
Last Quarter
Jan 1
New

Hourly Weather History & Observations

Time (CST) Temp. Windchill Dew Point Humidity Pressure Visibility Wind Dir Wind Speed Gust Speed Precip Events Conditions
12:42 AM 39.2 °F 37.0 °F 33.8 °F 81% 30.34 in 7.0 mi NE 3.5 mph - N/A   Partly Cloudy
1:47 AM 37.4 °F - 33.8 °F 87% 30.32 in 7.0 mi Calm Calm - N/A   Partly Cloudy
2:47 AM 37.4 °F - 33.8 °F 87% 29.82 in 7.0 mi Calm Calm - N/A   Partly Cloudy
3:46 AM 37.4 °F - 32.0 °F 81% 30.30 in 7.0 mi Calm Calm - N/A   Partly Cloudy
4:43 AM 35.6 °F - 32.0 °F 87% 30.30 in 7.0 mi Calm Calm - N/A   Partly Cloudy
5:49 AM 35.6 °F - 30.2 °F 81% 29.92 in 7.0 mi Calm Calm - N/A   Partly Cloudy
6:41 AM 32.0 °F - 30.2 °F 93% 30.32 in 7.0 mi Calm Calm - N/A   Partly Cloudy
7:42 AM 33.8 °F - 30.2 °F 87% 30.34 in 7.0 mi Calm Calm - N/A   Partly Cloudy
8:45 AM 44.6 °F 42.2 °F 35.6 °F 71% 29.96 in 7.0 mi ESE 4.6 mph - N/A   Partly Cloudy
9:44 AM 53.6 °F - 39.2 °F 58% 30.36 in 7.0 mi ESE 3.5 mph - N/A   Clear
10:44 AM 62.6 °F - 39.2 °F 42% 30.34 in 7.0 mi SSE 3.5 mph - N/A   Clear
11:42 AM 68.0 °F - 30.2 °F 24% 29.80 in 7.0 mi WNW 5.8 mph - N/A   Clear
12:42 PM 69.8 °F - 32.0 °F 25% 30.27 in 7.0 mi WNW 5.8 mph - N/A   Clear
1:43 PM 71.6 °F - 30.2 °F 22% 30.23 in 7.0 mi NNW 10.4 mph - N/A   Partly Cloudy
2:43 PM 71.6 °F - 30.2 °F 22% 29.72 in 7.0 mi NNW 11.5 mph - N/A   Partly Cloudy
3:44 PM 69.8 °F - 42.8 °F 38% 30.31 in 7.0 mi SSE 17.3 mph - N/A   Partly Cloudy
4:59 PM 64.4 °F - 46.4 °F 52% 30.22 in 7.0 mi South 15.0 mph - N/A   Scattered Clouds
5:42 PM 62.6 °F - 46.4 °F 55% 29.86 in 7.0 mi SSE 15.0 mph - N/A   Scattered Clouds
6:55 PM 55.4 °F - 46.4 °F 72% 30.27 in 7.0 mi ESE 6.9 mph - N/A   Clear
7:43 PM 53.6 °F - 48.2 °F 82% 30.29 in 7.0 mi SE 6.9 mph - N/A   Clear
8:40 PM 53.6 °F - 46.4 °F 77% 29.93 in 7.0 mi NW 3.5 mph - N/A   Clear
9:53 PM 50.0 °F - 46.4 °F 87% 30.34 in 7.0 mi Calm Calm - N/A   Clear
10:46 PM 48.2 °F - 44.6 °F 87% 30.34 in 6.0 mi Calm Calm - N/A   Clear
11:51 PM 46.4 °F - 42.8 °F 87% 29.81 in 5.0 mi Calm Calm - N/A   Clear